Overview Statistics Trail Chart Weather Telemetry Raw packets
 

This is the latest recevied weather packets stored in our database for station/object AA7VG. If no packets are shown the sender has not sent any weather packets the latest 10 day(s).

<< 6 7 8 9 10 11 12 >>
Time Temp. Humidity Pressure Rain* Wind** Luminosity Snow
1788568382 26.67° C 23% 1011.4 hPa 0 mm - - -
1788568077 26.67° C 23% 1011.4 hPa 0 mm - - -
1788567777 27.22° C 22% 1011.4 hPa 0 mm - - -
1788567472 27.78° C 23% 1011.4 hPa 0 mm - - -
1788567172 27.78° C 23% 1011.4 hPa 0 mm - - -
1788566867 27.22° C 23% 1011.3 hPa 0 mm - - -
1788566563 27.22° C 21% 1011.2 hPa 0 mm - - -
1788566258 26.67° C 23% 1011.2 hPa 0 mm - - -
1788565958 26.11° C 24% 1011.2 hPa 0 mm - - -
1788565675 26.11° C 24% 1011.2 hPa 0 mm - - -
1788565348 26.11° C 23% 1011.3 hPa 0 mm - - -
1788565044 26.11° C 23% 1011.2 hPa 0 mm - - -
1788564740 26.11° C 24% 1011.1 hPa 0 mm - - -
1788564437 26.11° C 23% 1011.3 hPa 0 mm - - -
1788564133 26.11° C 23% 1011.5 hPa 0 mm - - -
1788563828 26.67° C 23% 1011.4 hPa 0 mm - - -
1788563523 27.78° C 22% 1011.3 hPa 0 mm - - -
1788563223 27.22° C 22% 1011.3 hPa 0 mm - - -
1788562917 26.67° C 23% 1011.2 hPa 0 mm - - -
1788562616 26.67° C 23% 1011.3 hPa 0 mm - - -
1788562311 26.67° C 22% 1011.2 hPa 0 mm - - -
1788562005 26.67° C 22% 1011.2 hPa 0 mm - - -
1788561705 26.67° C 23% 1011.2 hPa 0 mm - - -
1788561404 27.22° C 23% 1011.4 hPa 0 mm - - -
1788561100 27.78° C 23% 1011.4 hPa 0 mm - - -

* Rain latest hour (hover to see other rain measurements)
** Current wind speed in m/s (hover to see current wind gust speed)